Midnight Wolf — HO7969 — position and weather

sailwx.info

Track history (hours):
 
Tides and Currents Weather Stations Pressure Air Temp Water Temp Dewpoint Dewpoint Depression Visibility Wind Speed Wind Dir Waves Ship Positions

Midnight Wolf

Last reported at 2014-Oct-23 19:33 UTC. Time now 2014-Oct-26 08:36 UTC.
Position N 16°50' W 062°15'.

Length 51 m; draft 3 m.

Type: Cargo ship. MMSI: 351880000.

Date/timePositionNaut miles runAvg speedWind from/ knotsBaromVisibWave heightAir tempDewpointWater temp
2014-Oct-23 19:33N 16°50' W 062°15'10 8.3
2014-Oct-23 18:22N 16°56' W 062°24'63 8.8
2014-Oct-23 11:12N 17°35' W 063°14'9 8.4
2014-Oct-23 10:07N 17°42' W 063°22'7 8.3
2014-Oct-23 09:17N 17°46' W 063°27'7 8.3
2014-Oct-23 08:29N 17°49' W 063°33'19 0.7
2014-Oct-22 03:32N 18°08' W 063°34'9 9.2
2014-Oct-22 02:33N 18°07' W 063°24'9 9.3
2014-Oct-22 01:32N 18°06' W 063°14'9 7.2
2014-Oct-22 00:19N 18°05' W 063°05'0 0.0
2014-Oct-21 23:32N 18°05' W 063°05'0 0.0
2014-Oct-21 22:32N 18°05' W 063°05'0 0.0
2014-Oct-21 21:31N 18°05' W 063°05'0 0.0
2014-Oct-21 20:33N 18°05' W 063°05'0 0.0
2014-Oct-21 19:32N 18°05' W 063°05'2 0.2
2014-Oct-21 08:14N 18°07' W 063°04'2 2.8
2014-Oct-21 07:33N 18°05' W 063°05'0 0.0
2014-Oct-21 06:30N 18°05' W 063°05'0 0.0
2014-Oct-21 05:29N 18°05' W 063°05'0 0.0
2014-Oct-21 04:32N 18°05' W 063°05'0 0.0
2014-Oct-21 03:27N 18°05' W 063°05'0 0.0
2014-Oct-21 02:30N 18°05' W 063°05'0 0.0
2014-Oct-21 01:31N 18°05' W 063°05'1 0.6
2014-Oct-21 00:31N 18°05' W 063°06'7 6.2
2014-Oct-20 23:25N 18°12' W 063°08'1 0.2
2014-Oct-20 20:20N 18°12' W 063°09'7 8.7
2014-Oct-20 19:32N 18°12' W 063°16'8 8.5
2014-Oct-20 18:32N 18°13' W 063°25'  
2014-Oct-16 03:33N 17°52' W 063°24'9 8.9
2014-Oct-16 02:32N 17°58' W 063°17'9 8.9
2014-Oct-16 01:33N 18°04' W 063°10'5 4.7
2014-Oct-16 00:33N 18°05' W 063°05'0 0.0
2014-Oct-15 23:33N 18°05' W 063°05'0 0.0
2014-Oct-15 22:33N 18°05' W 063°05'0 0.4
2014-Oct-15 21:32N 18°05' W 063°05'0 0.0
2014-Oct-15 20:32N 18°05' W 063°05'  
Track history (hours):
 
Tides and Currents Weather Stations Pressure Air Temp Water Temp Dewpoint Dewpoint Depression Visibility Wind Speed Wind Dir Waves Ship Positions

Midnight Wolf

Last reported at 2014-Oct-23 19:33 UTC. Time now 2014-Oct-26 08:36 UTC.
Position N 16°50' W 062°15'.

Length 51 m; draft 3 m.

Type: Cargo ship. MMSI: 351880000.

Date/timePositionNaut miles runAvg speedWind from/ knotsBaromVisibWave heightAir tempDewpointWater temp
2014-Oct-23 19:33N 16°50' W 062°15'10 8.3
2014-Oct-23 18:22N 16°56' W 062°24'63 8.8
2014-Oct-23 11:12N 17°35' W 063°14'9 8.4
2014-Oct-23 10:07N 17°42' W 063°22'7 8.3
2014-Oct-23 09:17N 17°46' W 063°27'7 8.3
2014-Oct-23 08:29N 17°49' W 063°33'19 0.7
2014-Oct-22 03:32N 18°08' W 063°34'9 9.2
2014-Oct-22 02:33N 18°07' W 063°24'9 9.3
2014-Oct-22 01:32N 18°06' W 063°14'9 7.2
2014-Oct-22 00:19N 18°05' W 063°05'0 0.0
2014-Oct-21 23:32N 18°05' W 063°05'0 0.0
2014-Oct-21 22:32N 18°05' W 063°05'0 0.0
2014-Oct-21 21:31N 18°05' W 063°05'0 0.0
2014-Oct-21 20:33N 18°05' W 063°05'0 0.0
2014-Oct-21 19:32N 18°05' W 063°05'2 0.2
2014-Oct-21 08:14N 18°07' W 063°04'2 2.8
2014-Oct-21 07:33N 18°05' W 063°05'0 0.0
2014-Oct-21 06:30N 18°05' W 063°05'0 0.0
2014-Oct-21 05:29N 18°05' W 063°05'0 0.0
2014-Oct-21 04:32N 18°05' W 063°05'0 0.0
2014-Oct-21 03:27N 18°05' W 063°05'0 0.0
2014-Oct-21 02:30N 18°05' W 063°05'0 0.0
2014-Oct-21 01:31N 18°05' W 063°05'1 0.6
2014-Oct-21 00:31N 18°05' W 063°06'7 6.2
2014-Oct-20 23:25N 18°12' W 063°08'1 0.2
2014-Oct-20 20:20N 18°12' W 063°09'7 8.7
2014-Oct-20 19:32N 18°12' W 063°16'8 8.5
2014-Oct-20 18:32N 18°13' W 063°25'  
2014-Oct-16 03:33N 17°52' W 063°24'9 8.9
2014-Oct-16 02:32N 17°58' W 063°17'9 8.9
2014-Oct-16 01:33N 18°04' W 063°10'5 4.7
2014-Oct-16 00:33N 18°05' W 063°05'0 0.0
2014-Oct-15 23:33N 18°05' W 063°05'0 0.0
2014-Oct-15 22:33N 18°05' W 063°05'0 0.4
2014-Oct-15 21:32N 18°05' W 063°05'0 0.0
2014-Oct-15 20:32N 18°05' W 063°05'  

Dump ship's entire track history